Volver al catálogo

COSMOS 2499 DEB

ActivoPO
NORAD 49932·DEBRIS·🇷🇺 Russia

Lanzado May 23, 2014 desde Plesetsk Cosmodrome

Loading…

Próximos Pases (próximas 24 horas)

TLE

EnvejeciendoSource: Space-Track

Época: Sep 10, 2026, 02:40 UTC

1 49932U 14028P   26253.11135214  .00008071  00000-0  16320-1 0  9997
2 49932  82.5525 179.2936 0387363  41.7509 321.2486 13.08877841146373

Sigue COSMOS 2499 DEB en tiempo real con AllMySat

Download on the App Store